Point Salines, Grenada

5:01 PM AST on May 23, 2017 (GMT -0400)
Point Salines International

Weather History for TGPY - January, 2014

Change the Weather History Date:

Sunday, January 26, 2014

  Actual Average Record
Temperature  
Mean Temperature 78 °F -  
Max Temperature 84 °F 83 °F 86 °F (1997)
Min Temperature 71 °F 73 °F 71 °F (2012)
Cooling Degree Days 12    
Growing Degree Days 28 (Base 50)    
Moisture  
Dew Point 72 °F    
Average Humidity 81    
Maximum Humidity 100    
Minimum Humidity 64    
Precipitation  
Precipitation 0.04 in - - ()
Sea Level Pressure  
Sea Level Pressure 29.93 in    
Wind  
Wind Speed 14 mph ()    
Max Wind Speed 24 mph    
Max Gust Speed -    
Visibility 7.3 miles    
Events Rain    
Averages and records for this station are not official NWS values.
T = Trace of Precipitation, MM = Missing Value Source: Averaged Metar Reports

Daily Weather History Graph

Daily Weather History Graph

Search for Another Location

Airport or City:

Trip Planner

Search our weather history database for the weather conditions in past years. The results will help you decide how hot, cold, wet, or windy it might be!

Date:

Astronomy

Jan. 26, 2014 Rise Set
Actual Time 6:32 AM AST 6:06 PM AST
Civil Twilight 6:10 AM AST 6:29 PM AST
Nautical Twilight 5:44 AM AST 6:54 PM AST
Astronomical Twilight 5:18 AM AST 7:20 PM AST
Moon 2:02 AM AST (1/26) 1:56 PM AST (1/26)
Length of Visible Light 12h 18m
Length of Day
11h 34m
Waning Crescent, 24% of the Moon is Illuminated
Jan 26
Waning Crescent
Jan 30
New
Feb 6
First Quarter
Feb 14
Full
Feb 22
Last Quarter

Hourly Weather History & Observations

Time (AST) Temp. Heat Index Dew Point Humidity Pressure Visibility Wind Dir Wind Speed Gust Speed Precip Events Conditions
12:00 AM 73.4 °F - 73.4 °F 100% 29.95 in 6.2 mi East 13.8 mph - N/A Rain Light Rain
1:00 AM 75.2 °F - 71.6 °F 89% 29.92 in 6.2 mi East 11.5 mph - N/A   Scattered Clouds
2:00 AM 74 °F - 73 °F 96% 29.89 in 10 mi East 13.8 mph - - Rain Light Rain Showers
2:30 AM 75.2 °F - 73.4 °F 94% 29.89 in 6.2 mi East 13.8 mph - N/A Rain Light Rain Showers
3:00 AM 75.2 °F - 73.4 °F 94% 29.86 in 6.2 mi East 15.0 mph - N/A   Partly Cloudy
4:00 AM 77.0 °F - 71.6 °F 83% 29.86 in 6.2 mi East 15.0 mph - N/A   Scattered Clouds
5:00 AM 76 °F - 72 °F 84% 29.90 in 9 mi East 12.7 mph - -   Mostly Cloudy
5:00 AM 77.0 °F - 71.6 °F 83% 29.89 in 6.2 mi East 12.7 mph - N/A   Scattered Clouds
6:00 AM 75.2 °F - 71.6 °F 89% 29.92 in 6.2 mi East 9.2 mph - N/A Rain Light Rain Showers
7:00 AM 77.0 °F - 73.4 °F 89% 29.92 in 5.6 mi East 17.3 mph - N/A   Scattered Clouds
8:00 AM 77 °F - 74 °F 87% 29.96 in 6 mi East 11.5 mph - - Rain Light Rain Showers
8:00 AM 77.0 °F - 73.4 °F 89% 29.95 in 6.2 mi East 11.5 mph - N/A   Mostly Cloudy
9:00 AM 78.8 °F - 73.4 °F 83% 29.98 in 6.2 mi East 18.4 mph - N/A   Mostly Cloudy
10:00 AM 80.6 °F 84.6 °F 71.6 °F 74% 29.98 in 6.2 mi East 21.9 mph - N/A   Mostly Cloudy
11:00 AM 81 °F - 71 °F 65% 30.00 in 11 mi ESE 19.6 mph - -   Widespread Dust
11:00 AM 80.6 °F 84.6 °F 71.6 °F 74% 29.98 in 6.2 mi ESE 19.6 mph - N/A   Scattered Clouds
12:00 PM 82.4 °F 87.2 °F 71.6 °F 70% 29.98 in 6.2 mi ESE 24.2 mph - N/A   Partly Cloudy
1:00 PM 82.4 °F 88.2 °F 73.4 °F 74% 29.95 in 6.2 mi East 23.0 mph - N/A   Partly Cloudy
2:00 PM 83 °F - 73 °F 64% 29.91 in 14 mi East 21.9 mph - -   Widespread Dust
2:00 PM 84.2 °F 90.9 °F 73.4 °F 70% 29.92 in 6.2 mi East 21.9 mph - N/A   Partly Cloudy
3:00 PM 82.4 °F 88.2 °F 73.4 °F 74% 29.89 in 6.2 mi East 19.6 mph - N/A   Scattered Clouds
4:00 PM 82.4 °F 88.2 °F 73.4 °F 74% 29.89 in 6.2 mi East 23.0 mph - N/A   Scattered Clouds
5:00 PM 82.4 °F 88.2 °F 73.4 °F 74% 29.89 in 6.2 mi ESE 19.6 mph - N/A   Scattered Clouds
6:00 PM 80.6 °F 85.4 °F 73.4 °F 79% 29.89 in 6.2 mi East 17.3 mph - N/A   Scattered Clouds
7:00 PM 78.8 °F - 71.6 °F 78% 29.89 in 6.2 mi East 15.0 mph - N/A   Partly Cloudy
8:00 PM 78 °F - 71 °F 75% 29.93 in 14 mi East 12.7 mph - -   Widespread Dust
8:00 PM 78.8 °F - 71.6 °F 78% 29.92 in 6.2 mi East 12.7 mph - N/A   Partly Cloudy
9:00 PM 78.8 °F - 71.6 °F 78% 29.95 in 6.2 mi East 13.8 mph - N/A   Partly Cloudy
10:00 PM 77.0 °F - 71.6 °F 83% 29.95 in 6.2 mi East 11.5 mph - N/A   Partly Cloudy
11:00 PM 78 °F - 72 °F 77% 29.95 in 14 mi East 9.2 mph - -   Widespread Dust
11:00 PM 77.0 °F - 71.6 °F 83% 29.95 in 6.2 mi East 9.2 mph - N/A   Partly Cloudy